GFSCGP_prec_cloud_348.txt.gz
Cloud_Cover
97 6 75 100 58 23 83 69 60 9 44 47 98 4 5 5 0 58 100 99 100 100 100 100 100 78 100 77 86 83 66 100 33 100 26 5 32 65 100 72 89 100 79 97
100 49 75 94 92 13 5 19 3 39 6 0 7 0 67 33 4 3 99 98 100 100 100 100 100 85 16 5 9 84 57 100 100 74 76 4 20 40 36 53 36 77 62 73
7 69 63 90 20 5 17 12 4 5 5 78 2 0 0 0 0 0 5 20 57 83 94 82 49 75 37 0 21 100 90 100 57 26 5 57 100 76 80 100 97 20 37 7
87 71 86 91 4 5 45 1 2 2 0 2 0 0 0 0 0 0 0 0 84 100 5 2 0 2 47 31 12 96 25 10 5 11 100 100 100 100 98 63 100 100 57 5
99 65 6 4 1 36 92 75 62 4 8 9 7 2 0 0 0 2 0 0 0 0 0 0 0 0 0 1 0 3 4 40 99 100 100 100 100 100 100 100 100 100 42 24
48 99 4 2 4 100 18 9 93 75 13 70 5 0 3 0 0 0 0 0 0 0 0 0 0 0 0 0 0 0 3 68 92 100 100 100 100 100 100 100 100 98 100 100
0 0 0 0 2 12 5 5 2 5 28 5 1 8 94 0 0 0 0 0 0 0 0 0 0 0 0 0 0 3 4 100 100 100 100 100 52 5 81 100 100 100 100 100
26 0 3 0 3 2 4 4 0 4 5 10 5 0 0 0 0 0 0 0 0 0 0 0 0 0 0 0 0 0 0 0 80 100 100 100 100 100 100 100 98 100 100 100
81 50 5 2 4 8 0 0 0 5 3 2 3 0 0 0 0 0 0 0 0 0 0 0 0 0 0 0 2 3 2 0 0 3 96 100 96 100 100 100 95 99 92 100
29 0 8 3 5 7 1 0 0 0 4 4 0 0 0 0 0 0 0 0 0 0 0 0 0 0 0 0 0 0 5 5 0 0 0 3 34 100 100 100 100 100 100 48
7 5 28 2 1 0 0 0 0 0 0 0 0 0 0 0 0 0 0 0 0 0 0 0 0 0 0 0 0 0 0 2 24 0 1 2 38 100 100 100 100 100 100 74
35 38 0 0 0 0 0 0 3 0 0 0 0 0 0 0 0 0 0 0 0 0 0 0 0 0 0 0 0 0 0 8 5 62 59 28 6 48 100 100 100 100 100 100
100 76 0 0 0 0 0 2 0 0 0 0 0 0 0 0 0 0 0 0 0 0 0 0 0 0 0 0 0 0 9 16 17 55 100 100 94 99 100 100 100 100 100 100
0 0 0 0 0 0 0 0 0 0 0 0 0 0 0 0 0 0 0 0 0 0 0 0 0 0 0 0 0 0 2 0 21 38 64 100 100 100 100 100 100 100 100 100
0 0 0 0 0 0 0 0 0 0 0 0 0 0 0 0 0 0 0 0 0 0 0 0 0 0 0 7 0 0 0 7 27 50 83 100 100 100 100 100 100 100 100 100
0 0 0 0 0 0 0 0 0 0 0 0 0 0 0 0 0 0 0 0 0 0 0 0 0 0 0 8 6 0 2 17 20 83 95 100 100 100 100 100 100 100 100 100
0 0 0 0 0 0 0 0 0 0 0 0 0 0 0 0 0 0 0 0 0 0 0 0 0 0 0 0 2 0 73 75 60 100 100 100 100 100 100 100 100 100 100 100
0 0 0 0 0 0 0 0 0 0 0 0 0 0 0 0 0 0 0 0 0 0 0 0 0 0 0 0 2 5 100 100 93 100 100 99 100 100 100 100 100 100 100 100
0 0 0 0 0 0 0 0 0 0 0 0 0 0 0 0 0 0 0 0 0 0 0 0 0 0 0 0 4 9 45 50 72 97 50 92 100 100 100 100 100 100 100 100
0 0 0 0 0 0 0 0 0 0 0 0 0 0 0 0 0 0 0 0 0 0 0 0 0 0 0 3 10 10 21 41 38 25 22 24 100 94 100 100 100 100 100 100
0 0 0 0 0 0 0 0 0 0 0 0 0 2 5 5 4 1 2 0 0 0 0 0 0 0 0 20 10 9 22 35 3 6 18 27 57 97 96 100 100 100 100 100
0 0 0 0 0 0 0 0 0 0 0 3 5 5 5 5 5 1 0 0 0 0 0 0 0 0 2 2 3 8 18 82 55 4 26 29 29 26 40 81 100 73 100 100
0 0 0 0 0 0 0 0 0 4 4 3 2 1 4 3 2 0 0 0 0 0 0 0 0 0 5 7 4 9 2 4 10 13 19 23 19 100 16 23 27 84 100 82
0 0 0 0 0 0 0 1 3 7 51 37 44 5 5 4 4 2 0 0 0 0 0 0 0 0 0 0 5 1 0 0 0 11 20 13 46 35 99 71 18 34 8 59
0 0 0 0 0 0 0 0 0 0 0 2 2 3 4 0 0 0 1 0 0 0 0 0 0 0 0 0 0 2 3 0 0 4 36 18 50 98 100 100 100 100 35 16
1 0 0 0 0 0 0 0 0 0 0 0 0 0 0 0 2 2 0 0 2 1 0 0 1 0 0 0 2 3 0 0 38 95 77 96 95 100 100 100 100 100 100 15

GFSCGP_prec_cloud_351.txt.gz
Cloud_Cover
100 100 100 97 98 97 23 52 46 5 4 3 0 20 5 5 12 0 0 5 100 100 100 100 100 100 95 100 100 100 99 61 3 93 100 100 100 100 100 79 100 85 5 5
100 100 67 41 5 57 82 5 4 1 0 0 0 0 5 0 0 0 1 0 10 61 12 96 74 99 100 78 62 5 9 72 100 100 100 100 100 100 91 30 5 71 54 77
5 10 42 7 5 17 12 2 0 0 0 0 0 4 4 0 0 0 0 0 0 0 0 17 30 75 22 1 12 81 43 92 100 100 98 100 100 100 100 100 89 93 100 100
3 1 43 0 5 3 0 1 3 3 0 0 0 4 0 0 0 0 0 0 0 0 0 0 0 0 0 0 0 1 27 53 99 100 44 5 71 98 99 100 100 100 100 100
37 78 77 8 54 21 2 0 0 0 11 67 17 32 1 0 3 42 38 0 0 0 0 0 0 0 0 0 0 0 0 0 3 1 23 100 100 65 95 100 100 100 100 74
83 51 9 63 5 5 6 13 5 4 4 4 22 50 4 1 4 5 0 0 0 0 0 0 0 0 0 0 0 0 0 0 0 0 5 72 100 99 70 33 100 100 100 92
3 0 3 71 52 4 5 58 6 0 0 4 3 0 0 0 0 0 0 0 0 0 0 0 0 0 0 0 0 0 0 0 0 0 0 8 100 100 100 100 84 100 100 100
0 0 0 0 0 0 0 2 1 0 0 0 4 0 0 0 0 0 0 0 0 0 0 0 0 0 0 0 0 0 0 0 0 0 11 25 14 3 4 4 32 78 100 100
42 13 0 0 0 0 0 0 0 5 0 0 0 0 0 0 0 0 0 0 0 0 0 0 0 0 0 0 0 0 0 0 0 0 42 89 44 5 5 14 78 100 100 100
85 50 4 5 0 0 0 0 0 1 0 2 0 0 0 0 0 0 0 0 0 0 0 0 0 0 0 0 0 0 0 0 0 0 13 8 3 7 38 46 98 81 100 100
71 100 89 8 5 5 5 4 0 0 0 0 0 0 0 0 0 0 0 0 0 0 0 0 0 0 0 0 0 0 0 0 0 0 0 0 7 22 49 69 91 97 100 100
100 81 12 5 38 5 5 3 0 0 0 0 0 0 0 0 0 0 0 0 0 0 0 0 0 0 0 0 0 0 0 0 7 33 76 62 65 74 97 100 100 100 100 100
0 6 89 5 3 5 5 0 0 0 0 0 0 0 0 0 0 0 0 0 0 0 0 0 0 0 0 0 0 0 0 0 0 14 52 87 100 100 100 100 100 100 100 100
0 0 0 0 0 0 0 0 0 0 0 0 0 0 0 0 0 0 0 0 0 0 0 0 0 0 0 0 0 0 0 0 9 29 32 52 72 100 100 100 100 100 100 100
0 0 0 0 0 0 0 0 0 0 0 0 0 0 0 0 0 0 0 0 0 0 0 0 0 0 0 6 6 0 0 3 16 47 84 100 100 99 100 100 100 100 100 100
0 0 0 0 0 0 0 0 0 0 0 0 0 0 0 0 0 0 0 0 0 0 0 0 0 0 0 0 0 0 0 10 36 99 100 100 100 100 100 77 100 100 100 100
0 0 0 0 0 0 0 0 0 0 0 0 0 0 0 0 0 0 0 0 0 0 0 0 0 0 0 0 0 2 0 8 26 59 100 100 100 100 100 100 100 100 100 100
0 0 0 0 0 0 0 0 0 0 0 0 0 0 0 0 0 0 0 0 0 0 0 3 3 0 0 0 7 0 4 25 29 63 100 99 100 100 100 100 100 100 100 100
0 0 0 0 0 0 0 0 0 0 0 0 0 0 0 0 0 0 0 0 0 0 4 5 5 0 0 0 2 9 33 30 78 100 99 100 97 100 100 100 100 89 100 100
0 0 0 0 0 0 0 0 0 0 0 0 0 0 0 0 0 0 1 3 5 32 84 2 0 0 0 2 4 16 24 33 48 36 42 64 84 100 100 100 100 100 100 100
0 0 0 0 0 0 0 0 0 0 0 0 0 1 5 5 5 5 6 68 44 3 0 0 0 0 0 7 22 26 17 24 1 4 18 34 30 76 79 100 100 100 100 100
0 0 0 0 0 0 0 0 0 0 0 0 0 0 1 4 8 5 5 3 4 0 0 0 0 0 0 13 20 16 23 0 2 13 25 35 38 47 40 60 70 94 92 99
0 0 0 0 0 0 0 0 0 0 0 0 3 2 14 38 13 40 5 5 3 0 0 0 0 0 0 18 13 14 0 8 18 25 34 26 31 28 22 34 31 35 72 98
0 0 0 0 0 0 0 0 0 0 0 0 0 0 0 0 0 2 5 2 0 0 0 0 0 0 2 11 26 0 1 7 25 31 26 34 40 41 30 30 23 59 74 74
0 0 0 0 2 0 0 0 0 0 0 0 0 0 0 0 0 0 0 0 0 0 0 0 0 0 0 6 11 9 6 19 27 22 26 27 33 89 51 32 93 100 100 100
0 0 3 3 4 0 0 0 0 0 0 0 0 0 0 0 0 0 0 0 4 5 5 21 4 5 5 53 1 8 16 19 17 29 42 42 93 79 85 30 100 98 11 39

GFSCGP_prec_cloud_354.txt.gz
Cloud_Cover
5 6 45 100 100 100 98 73 2 0 0 1 0 0 0 2 5 2 0 0 0 0 2 34 26 1 12 82 99 100 100 10 0 0 0 0 91 100 100 100 100 100 38 100
17 5 5 91 25 11 5 25 2 0 0 0 0 0 0 0 0 0 0 0 0 0 1 0 0 0 0 0 0 0 2 4 89 91 99 100 61 35 88 100 98 48 100 100
5 6 5 6 30 100 13 4 0 0 0 0 0 0 0 0 0 0 0 0 1 0 0 0 0 0 0 0 0 0 0 6 21 49 49 88 74 8 5 6 30 100 100 100
37 57 42 5 5 5 5 2 0 0 0 0 0 0 0 0 4 0 6 19 0 0 0 0 0 0 0 0 0 0 0 0 0 13 10 0 0 21 93 94 92 99 100 91
5 5 47 7 6 1 2 0 0 0 0 35 0 2 85 2 0 5 17 0 0 0 0 0 0 0 0 0 0 0 0 0 0 0 0 15 3 4 26 100 100 100 42 98
11 5 7 36 5 5 5 1 0 0 0 2 5 60 68 21 0 0 0 0 0 0 0 0 0 0 0 0 0 0 0 0 0 0 0 2 1 0 1 37 100 95 62 59
97 93 73 36 7 5 12 2 0 0 0 0 4 5 2 0 0 0 0 0 0 0 0 0 0 0 0 0 0 0 0 0 0 0 0 0 5 94 74 90 52 60 52 99
96 74 68 98 8 3 2 4 0 0 0 5 3 0 3 0 0 0 0 0 0 0 0 0 0 0 0 0 0 0 0 0 0 0 0 14 11 70 90 100 100 88 43 85
0 0 0 0 2 0 0 0 3 5 5 30 67 1 0 0 0 0 0 0 0 0 0 0 0 0 0 0 0 0 0 0 0 0 0 0 0 1 11 65 100 74 73 71
37 93 5 2 0 1 1 3 5 73 68 6 73 32 0 0 0 0 0 0 0 0 0 0 0 0 0 0 0 0 0 0 0 0 0 0 0 1 5 26 23 40 49 93
0 2 5 3 4 5 5 5 3 0 0 5 14 0 0 0 0 0 0 0 0 0 0 0 0 0 0 0 0 0 0 0 0 0 0 1 10 24 37 57 26 39 91 82
0 0 0 0 0 0 0 0 3 0 0 0 0 0 0 0 0 0 0 0 0 0 0 0 0 0 0 0 0 0 0 0 0 2 30 4 38 99 92 100 83 68 95 51
0 0 0 0 0 0 0 0 0 0 0 0 0 0 0 0 0 0 0 0 0 0 0 0 0 0 0 0 0 0 0 0 0 0 24 48 59 100 100 100 94 100 100 100
0 0 0 0 0 0 0 0 0 0 0 0 0 0 0 0 0 0 0 0 0 0 0 0 0 0 0 0 0 0 0 0 0 0 11 42 62 100 100 100 100 100 100 41
0 0 0 0 0 0 0 0 0 0 0 0 0 0 0 0 0 0 0 0 0 0 0 0 0 0 0 0 0 0 0 0 0 13 26 38 92 90 100 100 100 100 100 59
0 0 0 0 0 0 0 0 0 0 0 0 0 0 0 0 0 0 0 0 0 0 0 0 0 0 0 0 0 0 0 0 1 43 38 97 81 90 100 100 100 100 61 88
0 0 0 0 0 0 0 0 0 0 0 0 0 0 0 0 0 0 0 0 0 0 0 3 0 0 0 1 0 0 0 0 13 29 29 92 76 99 100 100 100 100 99 100
0 0 0 0 0 0 0 0 0 0 0 0 0 0 0 0 0 0 0 0 0 0 4 4 5 5 5 5 0 0 0 6 22 29 4 53 100 100 100 100 100 100 100 100
0 0 0 0 0 0 0 0 0 0 0 0 0 0 0 0 0 0 0 0 3 5 5 5 5 7 1 0 0 0 13 7 28 22 11 46 100 100 100 100 100 100 99 100
0 0 0 0 0 0 0 0 0 0 0 0 0 0 0 0 0 0 0 5 5 5 5 5 5 4 0 0 0 14 11 20 52 78 16 74 100 100 100 100 100 100 100 100
0 0 0 0 0 0 0 0 0 0 0 0 0 0 0 0 0 0 4 5 5 5 7 5 4 0 0 0 11 17 11 14 0 0 5 36 43 49 73 100 100 100 100 100
0 0 0 0 0 0 0 0 0 0 0 0 0 0 0 0 0 0 0 1 38 39 6 5 0 0 0 0 15 59 22 0 0 0 10 38 40 49 42 88 100 100 100 100
0 0 0 0 0 0 0 0 0 0 0 0 0 0 0 0 0 0 5 69 95 90 5 1 0 0 0 0 36 45 1 11 10 25 27 38 49 57 48 74 98 100 100 100
0 0 0 0 0 0 0 0 0 0 0 0 0 0 0 0 0 0 12 71 11 0 0 0 0 0 0 0 2 4 88 7 18 35 38 79 67 98 60 59 67 74 95 97
0 0 0 0 0 0 0 0 0 0 0 0 0 0 0 0 0 0 0 5 0 1 5 5 5 5 5 1 5 9 12 18 39 46 47 87 78 77 85 58 54 54 71 84
0 0 0 0 0 0 0 0 0 0 0 0 0 0 1 1 3 4 5 16 44 56 100 62 5 5 2 0 0 100 46 53 41 99 100 85 60 97 48 64 99 80 34 71

GFSCGP_prec_cloud_357.txt.gz
Cloud_Cover
69 96 87 5 52 100 5 5 32 48 3 0 0 0 0 0 0 0 0 0 0 0 0 0 0 0 0 0 0 0 0 0 0 0 16 92 94 42 75 11 99 64 80 99
52 23 5 5 5 100 6 5 36 26 5 0 0 0 0 0 0 0 0 0 0 0 0 0 0 0 0 0 0 0 0 0 0 0 0 0 2 4 51 43 44 6 52 88
6 5 5 5 5 8 5 5 13 3 2 0 0 0 0 0 0 0 0 0 5 0 0 0 0 0 0 0 0 0 0 0 0 0 0 34 14 0 0 2 2 54 16 20
8 5 5 5 5 4 5 10 41 23 4 5 0 0 0 0 0 0 0 0 0 0 0 0 0 0 0 0 0 0 0 0 0 0 0 33 100 52 56 38 0 11 90 82
5 5 5 8 61 98 73 100 17 5 22 4 0 0 19 2 0 0 0 0 0 0 0 0 0 0 0 0 0 0 0 0 0 0 0 0 6 95 100 99 46 0 1 84
12 62 26 94 99 100 100 100 16 5 3 6 2 8 21 1 0 0 0 0 0 0 0 0 0 0 0 0 0 0 0 0 0 0 0 0 0 0 38 99 71 90 62 36
5 34 70 89 100 100 100 25 5 1 2 3 27 13 3 5 0 0 0 0 0 0 0 0 0 0 0 0 0 0 0 0 0 0 0 0 0 1 91 96 8 100 81 13
4 5 5 26 30 4 1 3 1 5 60 87 84 32 5 5 5 5 0 0 0 0 0 0 0 0 0 0 0 0 0 0 0 0 0 0 0 0 0 1 12 51 88 98
0 0 0 0 0 0 0 0 0 5 69 100 80 6 5 19 5 1 0 0 0 0 0 0 0 0 0 0 0 0 0 0 0 0 0 0 0 0 0 0 0 0 0 0
1 0 0 0 0 0 0 0 0 0 0 0 0 1 0 0 0 0 0 0 0 0 0 0 0 0 0 0 0 0 0 0 0 0 0 0 0 0 0 0 0 0 0 0
5 21 64 12 4 0 0 0 0 0 0 0 0 0 0 0 0 0 0 0 0 0 0 0 0 0 0 0 0 0 0 0 0 0 7 25 29 31 32 41 36 20 20 35
0 0 0 0 0 0 0 0 0 0 0 0 0 0 0 0 0 0 0 0 0 0 0 0 0 0 0 0 0 0 0 0 0 0 0 0 0 34 50 50 64 81 80 66
0 0 0 0 0 0 0 0 0 0 0 0 0 0 0 0 0 0 0 0 0 0 0 0 0 0 0 0 0 0 0 0 0 0 0 0 0 32 92 99 82 95 100 100
0 0 0 0 0 0 0 0 0 0 0 0 0 0 0 0 0 0 0 0 0 0 0 0 0 0 0 0 0 0 0 0 0 0 0 0 0 10 66 61 84 100 100 100
0 0 0 0 0 0 0 0 0 0 0 0 0 0 0 0 0 0 0 0 0 0 0 0 0 0 5 2 0 0 0 0 0 0 0 0 0 45 52 96 100 100 100 100
0 0 0 0 0 0 0 0 0 0 0 0 0 0 0 0 0 0 0 0 0 0 0 0 0 0 0 5 2 0 3 0 0 0 0 0 0 38 95 100 100 100 100 100
0 0 0 0 0 0 0 0 0 0 0 0 0 0 0 0 0 0 0 0 0 0 0 0 0 1 0 4 0 0 0 0 0 0 0 0 0 14 70 100 100 100 100 100
0 0 0 0 0 0 0 0 0 0 0 0 0 0 0 0 0 0 0 0 0 0 0 0 0 0 2 5 0 0 0 0 0 0 3 0 0 14 82 100 100 100 100 100
0 0 0 0 0 0 0 0 0 0 0 0 0 0 0 0 0 0 0 0 0 0 5 4 5 5 2 1 0 0 0 0 0 0 1 0 0 19 50 89 100 100 100 100
0 0 0 0 0 0 0 0 0 0 0 0 0 0 0 0 0 0 0 0 0 0 4 5 5 5 5 3 0 0 0 0 2 1 3 10 0 37 100 100 100 100 100 81
0 0 0 0 0 0 0 0 0 0 0 0 0 0 0 0 0 0 0 0 0 4 3 7 11 5 5 0 0 0 0 0 45 15 3 27 31 42 96 94 99 100 100 100
0 0 0 0 0 0 0 0 0 0 0 0 0 0 0 0 0 0 0 0 0 0 0 21 28 6 0 0 0 0 0 0 90 24 4 20 36 18 34 100 84 100 100 100
0 0 0 0 0 0 0 0 0 0 0 0 0 0 0 0 0 0 0 0 8 42 64 55 5 1 0 0 4 5 4 2 2 2 5 19 43 51 52 100 100 100 100 100
0 0 0 0 0 0 0 0 0 0 0 0 0 0 0 0 0 0 0 0 0 0 1 12 62 95 1 5 31 5 0 5 10 47 80 28 52 100 65 100 100 100 100 100
0 0 0 0 0 0 0 0 0 3 0 0 0 0 0 0 0 0 0 3 4 5 5 24 13 96 5 5 5 5 1 8 72 100 100 100 100 100 100 90 69 63 26 38
0 0 0 0 0 0 0 4 3 0 0 0 0 0 0 0 0 0 0 0 6 4 5 5 88 5 5 4 5 9 0 18 66 100 88 100 100 100 100 100 100 95 66 80

GFSCGP_prec_cloud_360.txt.gz
Cloud_Cover
79 98 89 56 51 46 16 41 0 0 2 0 0 0 0 0 0 0 5 0 0 0 0 0 0 0 0 0 0 0 0 0 0 0 0 0 0 0 0 5 78 100 100 100
70 69 17 3 0 4 5 2 2 3 0 2 0 2 4 0 0 0 0 0 0 0 0 0 0 0 0 0 0 0 0 0 0 0 0 0 4 10 2 0 1 4 40 42
23 18 5 5 2 4 5 2 5 5 83 5 4 5 0 0 0 0 0 0 0 0 0 0 0 0 0 0 0 0 0 0 0 0 0 0 9 46 51 49 49 10 0 0
11 19 7 5 5 5 94 20 45 100 6 63 1 44 0 0 0 0 0 0 0 0 0 0 0 0 0 0 0 0 0 0 0 0 0 0 0 6 80 95 98 55 97 29
100 71 11 10 10 12 71 99 91 5 13 25 9 49 5 0 0 0 0 0 2 0 0 0 0 0 0 0 0 0 0 0 0 0 0 0 0 0 0 0 49 94 16 97
35 41 23 21 88 86 52 12 5 1 4 100 5 17 78 11 3 2 0 0 0 0 0 0 0 0 0 0 0 0 0 0 0 0 0 0 0 0 0 0 0 20 81 92
6 5 19 40 11 5 5 35 97 62 94 53 5 14 94 4 3 1 2 0 0 0 0 0 0 0 0 0 0 0 0 0 0 0 0 0 0 0 0 0 0 0 3 4
21 59 6 0 1 15 5 4 12 5 67 12 0 4 97 0 0 0 0 0 0 0 0 0 0 0 0 0 0 0 0 0 0 0 0 0 0 0 0 0 0 0 0 0
10 8 0 0 0 0 18 9 1 0 0 0 4 0 0 0 0 0 0 0 0 0 0 0 0 0 0 0 0 0 0 0 0 0 0 0 0 0 0 0 0 6 6 22
2 60 0 0 0 0 0 0 3 16 2 5 50 2 1 0 0 0 0 0 0 0 0 0 0 0 0 0 0 0 0 0 0 0 0 0 0 0 5 24 13 20 25 27
5 42 17 5 2 0 0 0 0 0 0 0 3 45 0 0 0 0 0 0 0 0 0 0 0 0 0 0 0 0 1 0 0 0 0 0 0 0 0 0 0 6 33 98
2 6 5 3 0 0 0 0 0 0 1 0 0 0 0 0 0 0 0 0 0 0 0 0 0 0 0 0 0 0 0 0 5 5 5 0 0 0 0 0 2 67 80 78
0 0 2 4 1 1 0 0 0 0 0 0 0 0 0 0 0 0 0 0 0 0 0 0 0 0 0 0 0 0 0 2 5 5 5 1 0 0 0 5 63 67 69 79
0 0 0 1 2 0 0 0 0 0 0 0 0 0 0 0 0 0 0 0 0 0 0 0 0 0 0 0 0 0 0 0 2 0 0 0 0 0 0 0 39 54 77 58
0 0 2 0 0 0 0 0 0 0 0 0 0 0 0 0 0 0 0 0 0 0 0 0 0 0 0 0 0 2 4 5 2 0 0 0 0 0 0 0 43 54 70 100
0 0 0 0 0 0 0 0 0 0 0 0 0 0 0 0 0 0 0 0 0 0 0 0 0 0 0 0 0 0 2 0 0 0 0 0 0 0 0 6 64 89 99 100
0 0 0 0 0 0 0 0 0 0 0 0 0 0 0 0 0 0 0 0 0 0 0 0 0 0 0 0 0 4 0 0 0 0 0 0 0 17 12 4 60 95 100 100
0 0 0 0 0 0 0 0 0 0 0 0 0 0 0 0 0 0 0 0 0 0 0 0 0 0 0 2 5 5 5 0 0 0 0 0 0 1 13 12 60 96 100 100
0 0 0 0 0 0 0 0 0 0 0 0 0 0 0 0 0 0 0 0 0 0 0 0 0 0 1 5 5 5 5 5 0 0 0 0 0 0 0 1 83 74 100 100
0 0 0 0 0 0 0 0 0 0 0 0 0 0 0 0 0 0 0 0 0 0 0 0 0 2 18 48 33 51 42 3 5 0 0 3 3 0 0 5 25 42 92 100
0 0 0 0 0 0 0 0 0 0 0 0 0 0 0 0 0 0 0 0 0 0 0 0 0 9 5 5 4 5 14 20 4 5 0 0 0 0 10 23 31 62 89 100
0 0 1 3 4 0 0 0 0 0 0 0 0 0 0 0 0 0 0 0 0 0 0 0 0 3 5 49 68 66 45 4 5 5 5 4 44 21 65 89 81 56 86 100
1 5 14 62 12 0 0 0 0 0 0 0 0 0 0 0 0 0 0 0 0 0 0 0 0 0 1 4 5 72 97 76 29 5 5 25 89 85 100 100 100 76 46 64
21 100 100 97 2 0 0 0 0 0 0 0 0 0 0 0 0 0 0 0 0 0 0 0 0 4 5 13 15 21 12 32 8 10 92 28 6 94 100 100 79 100 55 33
100 28 25 1 0 0 0 0 0 0 0 0 0 0 0 0 0 0 0 0 0 0 0 0 0 2 0 0 0 1 1 1 18 81 59 33 100 100 100 77 5 50 35 91
74 1 0 0 0 0 0 0 0 0 0 0 0 0 0 0 0 0 0 0 0 0 0 0 0 0 0 0 0 0 5 0 44 78 94 83 100 100 100 93 25 55 86 58